Omak, WA

4:44 AM PST on February 20, 2017 (GMT -0800)
Omak

Weather History for KOMK - September, 2012

Change the Weather History Date:

Wednesday, September 5, 2012

  Actual Average Record
Temperature  
Mean Temperature 67 °F 67 °F  
Max Temperature 86 °F 82 °F 98 °F (2006)
Min Temperature 47 °F 51 °F 34 °F (1969)
Degree Days  
Heating Degree Days 0 2  
Month to date heating degree days 2 10  
Since 1 July heating degree days 21 41  
Cooling Degree Days 2 4  
Month to date cooling degree days 6 21  
Year to date cooling degree days 587 627  
Growing Degree Days 17 (Base 50)    
Moisture  
Dew Point 42 °F    
Average Humidity 45    
Maximum Humidity 71    
Minimum Humidity 19    
Precipitation  
Precipitation 0.00 in 0.02 in 1.09 in (1937)
Month to date precipitation 0.00 0.09  
Year to date precipitation 10.76 9.37  
Sea Level Pressure  
Sea Level Pressure 30.00 in    
Wind  
Wind Speed 10 mph (North)    
Max Wind Speed 31 mph    
Max Gust Speed 44 mph    
Visibility 10 miles    
Events      
T = Trace of Precipitation, MM = Missing Value Source: NWS Daily Summary

Daily Weather History Graph

Daily Weather History Graph

Search for Another Location

Airport or City:

Trip Planner

Search our weather history database for the weather conditions in past years. The results will help you decide how hot, cold, wet, or windy it might be!

Date:

Astronomy

Sep. 05, 2012 Rise Set
Actual Time 6:21 AM PDT 7:30 PM PDT
Civil Twilight 5:49 AM PDT 8:02 PM PDT
Nautical Twilight 5:10 AM PDT 8:40 PM PDT
Astronomical Twilight 4:29 AM PDT 9:22 PM PDT
Moon 9:32 PM PDT (9/5) 12:00 PM PDT (9/5)
Length of Visible Light 14h 12m
Length of Day
13h 08m
Waning Gibbous, 75% of the Moon is Illuminated
Sep 5
Waning Gibbous
Sep 8
Last Quarter
Sep 15
New
Sep 22
First Quarter
Sep 29
Full

Hourly Weather History & Observations

Time (PDT) Temp. Dew Point Humidity Pressure Visibility Wind Dir Wind Speed Gust Speed Precip Events Conditions
12:53 AM 60.1 °F 39.9 °F 47% 30.09 in 10.0 mi NW 5.8 mph - N/A   Clear
1:53 AM 57.9 °F 39.9 °F 51% 30.09 in 10.0 mi North 10.4 mph - N/A   Clear
2:53 AM 57.9 °F 39.9 °F 51% 30.08 in 10.0 mi North 6.9 mph - N/A   Clear
3:53 AM 54.0 °F 39.9 °F 59% 30.09 in 10.0 mi NNW 5.8 mph - N/A   Clear
4:53 AM 52.0 °F 39.9 °F 63% 30.08 in 10.0 mi NW 4.6 mph - N/A   Clear
5:53 AM 48.9 °F 39.0 °F 69% 30.06 in 10.0 mi NNW 5.8 mph - N/A   Clear
6:53 AM 48.0 °F 39.0 °F 71% 30.07 in 10.0 mi North 3.5 mph - N/A   Clear
7:53 AM 57.9 °F 39.9 °F 51% 30.08 in 10.0 mi NNE 6.9 mph - N/A   Clear
8:53 AM 62.1 °F 39.9 °F 44% 30.06 in 10.0 mi NNE 8.1 mph - N/A   Clear
9:53 AM 66.9 °F 39.9 °F 37% 30.04 in 10.0 mi Variable 3.5 mph - N/A   Clear
10:53 AM 69.1 °F 41.0 °F 36% 30.01 in 10.0 mi SE 3.5 mph - N/A   Clear
11:53 AM 73.0 °F 42.1 °F 33% 29.98 in 10.0 mi Calm Calm - N/A   Clear
12:53 PM 77.0 °F 41.0 °F 28% 29.94 in 10.0 mi Variable 6.9 mph - N/A   Clear
1:53 PM 81.0 °F 41.0 °F 24% 29.92 in 10.0 mi SE 6.9 mph - N/A   Clear
2:53 PM 82.0 °F 39.9 °F 22% 29.89 in 10.0 mi Variable 3.5 mph - N/A   Clear
3:53 PM 82.9 °F 37.9 °F 20% 29.86 in 10.0 mi Calm Calm - N/A   Clear
4:53 PM 86.0 °F 39.0 °F 19% 29.86 in 10.0 mi North 6.9 mph - N/A   Partly Cloudy
5:53 PM 77.0 °F 44.1 °F 31% 29.88 in 10.0 mi North 19.6 mph 28.8 mph N/A   Clear
6:53 PM 73.0 °F 46.0 °F 38% 29.91 in 10.0 mi North 25.3 mph 40.3 mph N/A   Mostly Cloudy
7:53 PM 71.1 °F 46.0 °F 41% 29.94 in 10.0 mi North 27.6 mph 38.0 mph N/A   Overcast
8:53 PM 69.1 °F 46.0 °F 44% 29.97 in 10.0 mi North 23.0 mph 33.4 mph N/A   Partly Cloudy
9:53 PM 66.9 °F 46.0 °F 47% 29.99 in 10.0 mi North 16.1 mph 25.3 mph N/A   Clear
10:53 PM 64.9 °F 46.0 °F 50% 30.01 in 10.0 mi NNW 15.0 mph 20.7 mph N/A   Clear
11:53 PM 64.0 °F 46.0 °F 52% 30.01 in 10.0 mi North 12.7 mph 23.0 mph N/A   Clear